Dewpoint
73 73 72 72 72 72 73 74 73 74 75 74 74 76 76 77 78 78 77 77 77 77 78 79 79 78 77 78 78 78 77 77 75 76 76 75 75 74 73 73 73 73
73 73 73 72 73 74 74 73 75 75 76 76 76 76 77 77 77 77 77 76 77 77 77 78 78 78 78 77 78 77 78 78 77 76 76 76 75 74 73 74 72 74
72 72 72 71 70 71 69 72 74 75 74 74 75 76 76 76 76 77 77 77 77 76 77 77 78 78 77 77 78 78 77 78 77 75 77 77 75 75 75 72 72 73
73 72 71 70 70 70 70 72 73 74 74 74 74 74 74 74 76 76 77 77 77 77 77 77 77 77 78 77 78 76 77 78 76 78 78 78 78 75 75 75 74 73
72 72 71 71 70 72 72 71 70 71 72 73 73 74 75 76 76 75 76 76 77 77 77 77 78 77 78 78 78 77 76 76 77 78 77 77 78 77 75 75 76 74
72 73 73 72 72 72 70 70 70 70 71 70 72 72 73 75 74 74 75 74 75 75 75 75 76 76 77 77 78 77 76 74 74 78 77 76 75 75 74 76 76 75
71 72 71 71 70 71 70 70 70 71 70 70 72 72 73 72 74 74 75 74 74 75 74 76 77 77 77 77 78 77 77 77 77 77 77 75 77 76 75 76 77 76
70 70 71 71 70 70 70 69 69 70 70 71 70 72 72 71 73 73 74 74 74 75 76 76 77 78 76 76 77 77 77 75 76 77 77 76 77 76 77 76 77 77
70 70 70 70 69 69 68 67 68 69 70 70 68 68 71 71 71 71 74 75 74 75 76 76 77 77 76 76 76 77 76 75 74 76 76 75 75 76 75 76 76 76
71 70 69 69 68 68 68 67 67 67 69 68 68 67 68 71 71 72 73 75 74 75 75 76 76 76 76 76 77 76 76 76 76 76 75 75 75 74 74 75 74 75
69 69 69 68 68 67 67 67 66 66 67 67 67 66 67 69 71 72 73 74 72 73 74 75 75 75 76 75 75 75 76 75 75 76 76 76 75 75 75 75 75 74
69 69 68 68 68 67 67 67 66 66 66 67 67 67 67 67 69 70 71 73 73 72 73 75 75 75 76 76 74 74 75 75 75 76 75 75 75 74 75 75 74 75
69 69 69 68 68 67 67 67 66 66 66 66 66 66 66 66 66 69 71 71 73 72 72 74 75 75 76 76 75 75 75 75 74 74 75 75 74 74 73 74 74 74
69 69 69 69 69 70 69 67 67 66 67 67 67 67 65 65 65 66 69 69 71 72 73 74 75 74 75 76 76 75 75 75 74 74 73 74 73 74 73 72 73 73
71 69 70 70 69 70 69 68 67 67 68 68 69 67 65 65 65 65 67 68 69 71 72 72 72 73 73 74 75 75 75 73 74 74 74 74 74 72 73 73 73 72
72 71 71 71 70 70 70 69 68 68 66 67 67 67 68 68 68 67 66 67 68 70 71 71 71 72 72 69 70 74 74 72 73 75 74 73 74 74 72 72 72 72
72 72 71 71 71 71 71 70 69 68 68 68 68 68 68 70 69 67 66 65 66 67 68 68 69 69 67 65 65 67 72 74 73 74 75 74 73 74 74 72 72 73
71 71 72 71 72 71 71 71 70 69 69 69 68 67 70 68 67 68 68 67 65 66 66 67 68 67 62 62 63 64 67 72 71 71 71 72 73 72 73 73 72 72
72 71 72 72 72 71 72 71 71 70 69 68 66 67 66 68 68 67 68 68 67 68 66 65 66 64 62 61 62 62 62 67 68 69 69 69 71 72 72 73 74 74
72 71 71 72 72 72 72 71 70 70 68 67 67 68 68 67 66 67 67 68 67 68 68 66 66 64 61 60 60 60 61 63 69 68 69 69 70 71 71 73 74 75
71 72 72 72 72 72 72 71 71 70 69 68 66 67 68 69 67 67 67 68 67 66 67 65 63 62 59 59 59 59 60 62 69 69 69 70 71 71 73 73 74 75
71 72 72 72 72 72 72 71 71 72 71 69 68 66 67 67 68 67 67 67 67 66 65 65 64 60 59 58 58 58 59 66 69 71 70 70 71 72 73 74 74 74
71 70 71 71 71 71 71 71 71 72 72 71 70 68 67 67 68 67 68 67 67 67 66 66 65 63 57 57 57 57 60 68 70 70 71 70 71 72 73 74 74 74
72 72 72 71 72 71 71 71 70 71 70 71 70 68 67 67 68 68 69 69 67 67 66 67 66 65 57 55 56 56 62 69 70 70 71 72 72 72 73 74 74 74
72 72 72 71 71 71 70 71 71 71 71 71 70 69 69 69 69 69 68 69 67 67 67 67 67 65 57 56 55 55 61 69 70 70 70 71 71 72 73 73 74 74
74 74 73 71 71 71 71 71 72 72 73 72 71 70 69 69 68 69 69 69 68 68 67 67 67 68 69 56 54 54 56 69 71 70 70 70 71 71 71 72 73 73